Volver al catálogo

TITAN 3C TRANSTAGE DEB

ActivoLEO
NORAD 1668·DEBRIS·🇺🇸 United States

Lanzado Oct 15, 1965 desde Cape Canaveral Space Force Station

Loading…

Próximos Pases (próximas 24 horas)

TLE

ActualizadoSource: Space-Track

Época: Sep 14, 2026, 14:17 UTC

1 01668U 65082AF  26257.59577194  .00001062  00000-0  12307-3 0  9996
2 01668  32.0688 349.0702 0014138 106.9372 253.2828 14.82762323231622

Sigue TITAN 3C TRANSTAGE DEB en tiempo real con AllMySat

Download on the App Store